FW2300 Lithia FL US current weather conditions

sailwx.info

Wind from 051

Air temperature 18.9° C
Dewpoint 15.6° C

Last reported at 2019-Dec-11 02:01 UTC.
Time now 2019-Dec-11 03:46 UTC

Location: N 27°51' W 082°11'.
View on Google Maps.

See reports from other nearby stations

  
Tides and Currents Weather Stations Pressure Air Temp Water Temp Dewpoint Dewpoint Depression Visibility Wind Speed Wind Dir Waves Ship Positions
date/time (UTC)wind fromknots sea level pressurealtimeterstation pressurevisibilityair tempwater tempwave heightnotes
2019-Dec-11 02:01 051 18.9
2019-Dec-11 01:47 051 19.4
2019-Dec-11 01:32 051 20.0
2019-Dec-11 01:17 051 20.0
2019-Dec-11 01:03 051 20.6
2019-Dec-11 00:46 051 21.1
2019-Dec-11 00:31 051 21.7
2019-Dec-11 00:15 051 21.7
2019-Dec-11 00:01 051 22.8
2019-Dec-10 23:46 051 22.8
2019-Dec-10 23:31 051 23.9
2019-Dec-10 23:16 051 23.9
2019-Dec-10 23:01 216 25.0
2019-Dec-10 22:46 233 0 gusting 3 25.0
2019-Dec-10 22:33 237 25.6
2019-Dec-10 22:15 226 26.1
2019-Dec-10 22:01 188 0 gusting 2 26.7
2019-Dec-10 21:46 223 0 gusting 4 26.7
2019-Dec-10 21:31 207 0 gusting 4 27.2
2019-Dec-10 21:16 216 1 gusting 6 27.2
2019-Dec-10 21:03 228 0 gusting 2 27.8
2019-Dec-10 20:46 227 0 gusting 5 27.8
2019-Dec-10 20:30 227 0 gusting 6 27.8
2019-Dec-10 20:16 243 27.8
2019-Dec-10 20:00 252 0 gusting 4 28.3
2019-Dec-10 19:45 158 1 gusting 5 28.3
2019-Dec-10 19:30 218 1 gusting 5 29.4
2019-Dec-10 19:16 109 1 gusting 6 28.9
2019-Dec-10 19:01 142 2 gusting 6 28.3
2019-Dec-10 18:46 185 1 gusting 6 28.3
2019-Dec-10 18:30 205 2 gusting 6 28.3
2019-Dec-10 18:16 143 2 gusting 6 28.3
2019-Dec-10 18:04 223 0 gusting 6 27.2
2019-Dec-10 17:50 227 0 gusting 5 26.7
2019-Dec-10 17:32 117 2 gusting 6 27.2
2019-Dec-10 17:17 110 0 gusting 5 26.7
2019-Dec-10 17:02 175 1 gusting 6 26.1
2019-Dec-10 16:47 154 2 gusting 6 26.1
2019-Dec-10 16:32 104 2 gusting 6 25.0
2019-Dec-10 16:16 136 1 gusting 6 24.4
2019-Dec-10 16:01 195 0 gusting 6 23.3
2019-Dec-10 15:47 221 1 gusting 7 22.8
2019-Dec-10 15:31 229 0 gusting 6 22.2
2019-Dec-10 15:15 141 0 gusting 3 21.7
2019-Dec-10 15:01 150 1 gusting 6 21.7
2019-Dec-10 14:45 167 1 gusting 6 21.1
2019-Dec-10 14:30 126 1 gusting 3 20.6
2019-Dec-10 14:16 142 2 gusting 6 20.0
2019-Dec-10 14:00 119 0 gusting 3 20.0
2019-Dec-10 13:45 119 1 gusting 5 19.4
2019-Dec-10 13:15 292 17.8
2019-Dec-10 13:02 292 16.1
2019-Dec-10 12:46 292 15.6
2019-Dec-10 12:31 292 15.6
2019-Dec-10 12:16 292 15.6
2019-Dec-10 12:02 292 15.0
2019-Dec-10 11:46 292 15.0
2019-Dec-10 11:33 292 15.0
2019-Dec-10 11:16 292 15.0
2019-Dec-10 11:01 292 15.0
2019-Dec-10 10:47 292 15.0
2019-Dec-10 10:33 292 15.6
2019-Dec-10 10:17 292 15.6
2019-Dec-10 10:01 292 15.6
2019-Dec-10 09:47 292 15.6
2019-Dec-10 09:31 292 15.0
2019-Dec-10 09:17 292 15.0
2019-Dec-10 09:02 292 15.0
2019-Dec-10 08:46 292 15.6
2019-Dec-10 08:31 292 15.6
2019-Dec-10 08:16 292 15.6
2019-Dec-10 08:01 292 15.6
2019-Dec-10 07:46 292 15.0
2019-Dec-10 07:31 292 14.4
2019-Dec-10 07:16 292 13.9
2019-Dec-10 07:01 292 13.9
2019-Dec-10 06:46 292 13.9
2019-Dec-10 06:30 292 14.4
2019-Dec-10 06:16 292 13.9
2019-Dec-10 06:00 292 14.4
2019-Dec-10 05:46 292 15.0
2019-Dec-10 05:31 292 15.6
2019-Dec-10 05:16 292 15.6
2019-Dec-10 05:00 292 15.6
2019-Dec-10 04:45 292 15.0
2019-Dec-10 04:31 292 15.6
2019-Dec-10 04:16 292 15.6
2019-Dec-10 04:00 292 15.0
2019-Dec-10 03:45 292 15.6
2019-Dec-10 03:30 292 15.6
2019-Dec-10 03:15 292 15.6
2019-Dec-10 03:00 292 15.6
2019-Dec-10 02:46 292 15.6
2019-Dec-10 02:30 292 15.6
2019-Dec-10 02:15 292 15.6
2019-Dec-10 02:00 292 15.6
2019-Dec-10 01:45 292 15.6
2019-Dec-10 01:30 292 16.1
2019-Dec-10 01:15 292 16.1
2019-Dec-10 01:00 292 16.7
2019-Dec-10 00:45 292 16.7
2019-Dec-10 00:30 292 17.2
2019-Dec-10 00:15 292 18.3
2019-Dec-10 00:00 292 18.9
2019-Dec-09 23:45 292 18.9
2019-Dec-09 23:30 292 19.4
2019-Dec-09 23:15 292 20.6
2019-Dec-09 23:00 292 21.7
2019-Dec-09 22:45 292 22.2
2019-Dec-09 22:30 292 23.3
2019-Dec-09 22:15 294 24.4
2019-Dec-09 22:00 207 26.1
2019-Dec-09 21:45 205 26.7
2019-Dec-09 21:30 126 27.2
2019-Dec-09 21:15 140 0 gusting 5 27.2
2019-Dec-09 21:00 132 0 gusting 3 27.2
2019-Dec-09 20:45 120 0 gusting 4 27.2
2019-Dec-09 20:30 190 0 gusting 3 27.2
2019-Dec-09 20:17 121 1 gusting 4 27.2
2019-Dec-09 20:02 154 0 gusting 4 26.7
2019-Dec-09 19:47 117 27.8
2019-Dec-09 19:32 107 1 gusting 5 28.3
2019-Dec-09 19:01 235 2 gusting 7 27.2
2019-Dec-09 18:46 224 0 gusting 6 27.2
2019-Dec-09 18:32 180 0 gusting 6 26.7
2019-Dec-09 18:18 281 1 gusting 7 26.7
2019-Dec-09 18:01 219 1 gusting 6 26.7
2019-Dec-09 17:46 220 0 gusting 6 26.7
2019-Dec-09 17:16 321 1 gusting 9 26.1
2019-Dec-09 17:01 140 0 gusting 6 26.1
2019-Dec-09 16:46 163 3 gusting 7 25.6
2019-Dec-09 16:31 187 2 gusting 7 25.0
2019-Dec-09 16:15 128 2 gusting 11 25.0
2019-Dec-09 16:00 204 1 gusting 7 25.0
2019-Dec-09 15:45 126 1 gusting 6 24.4
2019-Dec-09 15:30 154 2 gusting 6 23.9
2019-Dec-09 15:15 153 2 gusting 6 23.9
2019-Dec-09 15:00 138 2 gusting 6 23.3
2019-Dec-09 14:45 144 1 gusting 6 22.2
2019-Dec-09 14:30 122 0 gusting 5 21.1
2019-Dec-09 14:16 123 1 gusting 6 20.0
2019-Dec-09 14:02 128 1 gusting 5 18.3
2019-Dec-09 13:46 157 0 gusting 3 17.2
2019-Dec-09 13:31 146 0 gusting 3 16.7
2019-Dec-09 13:15 130 0 gusting 2 15.6
2019-Dec-09 13:01 122 13.9
2019-Dec-09 12:46 122 12.8
2019-Dec-09 12:32 122 12.2
2019-Dec-09 12:16 122 12.2
2019-Dec-09 12:01 122 12.2
2019-Dec-09 11:45 122 12.2
2019-Dec-09 11:31 122 12.8
2019-Dec-09 11:16 122 12.8
2019-Dec-09 11:01 122 12.8
2019-Dec-09 10:46 122 12.8
2019-Dec-09 10:31 122 12.8
2019-Dec-09 10:16 122 13.3
2019-Dec-09 10:01 122 13.3
2019-Dec-09 09:46 122 13.3
2019-Dec-09 09:30 122 13.3
2019-Dec-09 09:15 122 13.3
2019-Dec-09 09:01 122 13.3
2019-Dec-09 08:46 122 13.3
2019-Dec-09 08:30 122 13.3
2019-Dec-09 08:16 122 13.3
2019-Dec-09 08:00 122 13.9
2019-Dec-09 07:45 122 13.9
2019-Dec-09 07:30 122 14.4
2019-Dec-09 07:15 122 14.4
2019-Dec-09 07:00 122 14.4
2019-Dec-09 06:45 122 14.4
2019-Dec-09 06:30 122 14.4
2019-Dec-09 06:15 122 14.4
2019-Dec-09 06:00 122 15.0
2019-Dec-09 05:45 122 15.0
2019-Dec-09 05:30 122 15.6
2019-Dec-09 05:02 122 15.0
2019-Dec-09 04:46 122 15.6
2019-Dec-09 04:31 122 16.1
2019-Dec-09 04:17 122 16.7
2019-Dec-09 04:02 122 17.2
2019-Dec-09 03:46 122 0 gusting 2 17.8
2019-Dec-09 03:31 122 17.8
2019-Dec-09 03:16 130 0 gusting 2 18.3